TimeCDT,TemperatureF,Dew PointF,Humidity,Sea Level PressureIn,VisibilityMPH,Wind Direction,Wind SpeedMPH,Gust SpeedMPH,PrecipitationIn,Events,Conditions,WindDirDegrees,DateUTC
12:53 AM,66.9,50.0,54,30.07,10.0,South,3.5,-,N/A,,Overcast,170,2013-07-03 05:53:00
1:53 AM,66.0,48.9,54,30.06,10.0,Calm,Calm,-,N/A,,Clear,0,2013-07-03 06:53:00
2:53 AM,63.0,51.1,65,30.06,10.0,Calm,Calm,-,N/A,,Mostly Cloudy,0,2013-07-03 07:53:00
3:53 AM,63.0,51.1,65,30.05,10.0,SSE,4.6,-,N/A,,Clear,150,2013-07-03 08:53:00
4:53 AM,59.0,51.1,75,30.05,10.0,South,5.8,-,N/A,,Partly Cloudy,170,2013-07-03 09:53:00
5:53 AM,61.0,51.1,70,30.05,10.0,South,3.5,-,N/A,,Scattered Clouds,180,2013-07-03 10:53:00
6:16 AM,62.6,51.8,68,30.10,10.0,Variable,5.8,16.1,N/A,Thunderstorm,Mostly Cloudy,0,2013-07-03 11:16:00
6:31 AM,64.4,51.8,64,30.11,10.0,NW,5.8,-,N/A,,Mostly Cloudy,310,2013-07-03 11:31:00
6:53 AM,66.9,52.0,59,30.06,10.0,WSW,3.5,-,N/A,,Scattered Clouds,240,2013-07-03 11:53:00
7:53 AM,68.0,53.1,59,30.07,10.0,WSW,6.9,-,N/A,,Clear,240,2013-07-03 12:53:00
8:53 AM,73.0,54.0,51,30.09,10.0,West,6.9,-,N/A,,Clear,260,2013-07-03 13:53:00
9:53 AM,77.0,52.0,42,30.08,10.0,SW,9.2,-,N/A,,Clear,230,2013-07-03 14:53:00
10:53 AM,80.1,50.0,35,30.06,10.0,SSW,10.4,-,N/A,,Clear,210,2013-07-03 15:53:00
11:53 AM,82.9,48.9,31,30.05,10.0,SW,6.9,16.1,N/A,,Clear,220,2013-07-03 16:53:00
12:53 PM,84.0,48.0,28,30.03,10.0,Variable,3.5,-,N/A,,Clear,0,2013-07-03 17:53:00
1:53 PM,86.0,46.9,26,30.01,10.0,SE,5.8,-,N/A,,Clear,130,2013-07-03 18:53:00
2:53 PM,88.0,46.9,24,29.99,10.0,South,9.2,-,N/A,,Partly Cloudy,170,2013-07-03 19:53:00
3:53 PM,89.1,46.0,22,29.96,10.0,SSE,13.8,21.9,N/A,,Partly Cloudy,160,2013-07-03 20:53:00
4:53 PM,88.0,45.0,22,29.95,10.0,SSE,11.5,16.1,N/A,,Clear,150,2013-07-03 21:53:00
5:53 PM,88.0,45.0,22,29.93,10.0,South,10.4,-,N/A,,Partly Cloudy,170,2013-07-03 22:53:00
6:53 PM,84.9,45.0,25,29.93,10.0,SSE,5.8,-,N/A,,Clear,160,2013-07-03 23:53:00
7:53 PM,82.9,46.9,28,29.93,10.0,SE,5.8,-,N/A,,Clear,140,2013-07-04 00:53:00
8:53 PM,78.1,48.0,35,29.93,10.0,SE,6.9,-,N/A,,Clear,130,2013-07-04 01:53:00
9:53 PM,73.0,48.9,42,29.95,10.0,SSE,6.9,-,N/A,,Clear,150,2013-07-04 02:53:00
10:53 PM,70.0,48.9,47,29.96,10.0,SSE,9.2,-,N/A,,Clear,160,2013-07-04 03:53:00
11:53 PM,68.0,48.0,49,29.96,10.0,South,5.8,-,N/A,,Clear,180,2013-07-04 04:53:00